Volver al catálogo

FENGYUN 1C DEB

ActivoSSO
NORAD 32094·DEBRIS·🇨🇳 China

Lanzado May 10, 1999 desde Taiyuan Satellite Launch Center

Loading…

Próximos Pases (próximas 24 horas)

TLE

ActualizadoSource: Space-Track

Época: Sep 14, 2026, 10:07 UTC

1 32094U 99025CQL 26257.42195359  .00000320  00000-0  20087-3 0  9998
2 32094  98.7659 245.8655 0034003 205.1344 154.8174 14.11053057982521

Sigue FENGYUN 1C DEB en tiempo real con AllMySat

Download on the App Store